Weather History for Marshfield, WI

Change the Weather History Date:

Saturday, May 25, 2013

  Actual Average Record
Temperature  
Mean Temperature 56 °F -  
Max Temperature 64 °F 69 °F 88 °F (1977)
Min Temperature 48 °F 45 °F 25 °F (1988)
Degree Days  
Heating Degree Days 9    
Growing Degree Days 6 (Base 50)    
Moisture  
Dew Point 40 °F    
Average Humidity 59    
Maximum Humidity 80    
Minimum Humidity 37    
Precipitation  
Precipitation 0.00 in - - ()
Sea Level Pressure  
Sea Level Pressure 30.33 in    
Wind  
Wind Speed 7 mph (SE)    
Max Wind Speed 13 mph    
Max Gust Speed 20 mph    
Visibility 10 miles    
Events      
Averages and records for this station are not official NWS values.
T = Trace of Precipitation, MM = Missing Value Source: NWS Daily Summary

Daily Weather History Graph

Daily Weather History Graph

Search for Another Location

Airport:

Trip Planner

Search our weather history database for the weather conditions in past years. The results will help you decide how hot, cold, wet, or windy it might be!

Date:

Astronomy

May. 25, 2013 Rise Set
Actual Time 5:23 AM CDT 8:32 PM CDT
Civil Twilight 4:47 AM CDT 9:08 PM CDT
Nautical Twilight 4:02 AM CDT 9:53 PM CDT
Astronomical Twilight 3:07 AM CDT 10:49 PM CDT
Moon 9:20 PM CDT (5/25) 5:50 AM CDT (5/25)
Length of Visible Light 16h 20m
Length of Day
15h 09m
Full, 100% of the Moon is Illuminated
May 25
Full
May 31
Last Quarter
Jun 8
New
Jun 16
First Quarter
Jun 23
Full

Hourly Weather History & Observations

Time (CDT) Temp. Dew Point Humidity Pressure Visibility Wind Dir Wind Speed Gust Speed Precip Events Conditions
12:54 AM 50.0 °F 42.1 °F 74% 30.32 in 10.0 mi SSE 5.8 mph - N/A   Clear
1:54 AM 50.0 °F 41.0 °F 71% 30.31 in 10.0 mi East 5.8 mph - N/A   Clear
2:54 AM 48.9 °F 39.9 °F 71% 30.32 in 10.0 mi ESE 6.9 mph - N/A   Partly Cloudy
3:54 AM 48.0 °F 41.0 °F 77% 30.32 in 10.0 mi ESE 5.8 mph - N/A   Overcast
4:54 AM 48.0 °F 42.1 °F 80% 30.32 in 10.0 mi SE 6.9 mph - N/A   Overcast
5:54 AM 48.0 °F 42.1 °F 80% 30.37 in 10.0 mi ESE 5.8 mph - N/A   Overcast
6:54 AM 48.0 °F 41.0 °F 77% 30.39 in 10.0 mi ESE 8.1 mph - N/A   Overcast
7:54 AM 50.0 °F 41.0 °F 71% 30.36 in 10.0 mi SSE 6.9 mph - N/A   Overcast
8:54 AM 52.0 °F 42.1 °F 69% 30.37 in 10.0 mi SE 9.2 mph - N/A   Overcast
9:54 AM 54.0 °F 42.1 °F 64% 30.38 in 10.0 mi SE 9.2 mph - N/A   Overcast
10:54 AM 55.9 °F 39.0 °F 53% 30.37 in 10.0 mi ESE 10.4 mph - N/A   Overcast
11:54 AM 57.0 °F 39.0 °F 51% 30.36 in 9.0 mi SSE 11.5 mph - N/A   Overcast
12:54 PM 59.0 °F 39.9 °F 49% 30.35 in 10.0 mi SE 12.7 mph - N/A   Overcast
1:54 PM 62.1 °F 37.9 °F 41% 30.33 in 10.0 mi SE 11.5 mph - N/A   Overcast
2:54 PM 63.0 °F 37.0 °F 38% 30.34 in 10.0 mi SE 12.7 mph 17.3 mph N/A   Scattered Clouds
3:54 PM 63.0 °F 37.0 °F 38% 30.33 in 10.0 mi SSE 6.9 mph - N/A   Overcast
4:54 PM 63.0 °F 37.0 °F 38% 30.32 in 10.0 mi SSE 11.5 mph 19.6 mph N/A   Mostly Cloudy
5:54 PM 64.0 °F 37.0 °F 37% 30.30 in 10.0 mi SE 6.9 mph - N/A   Mostly Cloudy
6:54 PM 60.1 °F 37.0 °F 42% 30.29 in 10.0 mi SSE 9.2 mph - N/A   Clear
7:54 PM 57.9 °F 42.1 °F 56% 30.30 in 10.0 mi SSE 3.5 mph - N/A   Partly Cloudy
8:54 PM 55.9 °F 39.0 °F 53% 30.30 in 10.0 mi SE 4.6 mph - N/A   Clear
9:54 PM 54.0 °F 39.0 °F 57% 30.31 in 10.0 mi SE 5.8 mph - N/A   Clear
10:54 PM 51.1 °F 39.0 °F 63% 30.32 in 10.0 mi SE 5.8 mph - N/A   Clear
11:54 PM 48.9 °F 39.0 °F 69% 30.32 in 10.0 mi SE 5.8 mph - N/A   Partly Cloudy